Regional Weather Roundup
Issued by NWS Goodland, KS

Home | Current Version | Previous Version | Text Only | Print | Product List | Glossary On
Versions: 1 2 3 4 5 6 7 8 9 10 11 12 13 14 15 16 17 18 19 20 21 22 23 24 25 26 27 28 29 30 31 32 33 34 35 36 37 38 39 40 41 42 43 44 45 46 47 48 49 50
000
ASUS43 KGLD 192108
RWRGLD

GOODLAND FORECAST AREA HOURLY WEATHER ROUNDUP
NATIONAL WEATHER SERVICE GOODLAND KS
200 PM MST THU JAN 19 2017

...OFFICIAL OBSERVATIONS...

CITY           SKY/WX    TMP DP  RH WIND       PRES   REMARKS
GOODLAND KS    SUNNY     41  35  79 CALM      29.53F
HILL CITY KS   CLOUDY    47  42  83 SE8       29.58S
IMPERIAL NEB   SUNNY     43  34  70 VRB7      29.53F
MCCOOK NEB     CLOUDY    36  36 100 W6        29.58R FOG
AKRON CO       SUNNY     46  23  40 NW6       29.52F
BURLINGTON CO  SUNNY     49  28  44 N7        29.53F
LIMON CO       SUNNY     53  17  24 NW7       29.53F
$$

...UNOFFICIAL OBSERVATIONS...

CITY           SKY/WX    TMP DP  RH WIND       PRES   REMARKS
NORTON KS      CLOUDY    43  37  81 S6        29.58R
KIT CARSON CO    N/A     50  30  45 CALM        N/A
YUMA CO        FAIR      41  23  48 CALM      29.52F
$$



USA.gov is the U.S. government's official web portal to all federal, state and local government web resources and services.